格洛纳斯-714 COSMOS 1519 [GLONASS]

导读 | 豆包AI

COSMOS 1519是苏联(CIS)于1983年12月29日08:00发射的GLONASS导航卫星,属于格洛纳斯系统早期试验组网卫星,该系统由苏联国防部主导研发,旨在打破美国GPS垄断,为全球军民用户提供独立导航服务,卫星采用三轴稳定设计,服役于中地球轨道,为后续格洛纳斯系统全球组网奠定了技术基础,是苏联冷战时期航天导航布局的重要组成部分。

基本信息
目录编号:
14590
目录名称:
COSMOS 1519 (GLONASS)
国际标识:
1983-127A
轨道中心:
EARTH
卫星名称:
格洛纳斯-714
卫星全名:
格洛纳斯-714 COSMOS 1519 [GLONASS]
卫星状态:
在轨 (已飞行15416 天)
发射日期:
1983-12-29 UTC
国别 :
俄罗斯(独联体) (CIS)
星等 :
--
轨道信息
数据来源 国际轨道数据
星历时间: 2026-03-09T14:29:17+0800
4天前
查看轨道信息
半长轴: 25508.256km
偏心率: 0.0010242
轨道倾角: 66.465°
近地点辐角 178.366°
升交点赤经 332.399°
平近点角 359.721°
近地点: 19103.993km
远地点: 19156.245km
周期: 675.742分钟
每日圈数: 2.130991
详细信息
平衡模式:
三轴稳定
覆盖范围:
全球
运营商:
列舍特涅夫卫星信息系统
运营商所在国:
俄罗斯
制造商(研发单位):
列舍特涅夫卫星信息系统
制造商所在国:
俄罗斯
使用方式:
暂无
卫星简介
格洛纳斯(GLONASS )是苏联/俄罗斯研制卫星导航系统。标准配置为24颗卫星,其中18颗卫星就能保证该系统为俄罗斯境内用户提供全部服务。该卫星已退役。
2D轨道图
3D轨道图
轨道高度分析图
轨道倾角分析图
轨道综合分析图
查看轨道综合分析图